Location: Ballingbuur
(53.0000°N, 5.7667°E)
Time: 04:55:52
(UTC+00:00)

ATLAS CENTAUR R/B - Pass Details

Date: 29 November 2020
Orbit: 477 x 668 km, 64.7° (Epoch: 12 January)

Event Time Altitude Azimuth Distance (km) Brightness Sun altitude
Exits shadow 04:32:33 47° 132° (SE) 673 2.0 -24.9°
Drops below altitude 10° 04:35:24 10° 136° (SE) 1,740 4.5 -24.5°
Sets 04:37:37 0° 137° (SE) 2,653 5.5 -24.1°
